sat.trackr.live / text

‹ back to catalog

STARLINK-34081

NORAD 64044 · 2025-102Y

PAYLOAD ACTIVE UNKNOWN

§ Identity

Operator
Country
US
Launch date
2025-05-16
Launch site
AFWTR
Launch vehicle
Mass (kg)
RCS (m²)

Purposes: comms

External: N2YO · Heavens-Above · Gunter

§ Orbital elements

Epoch: 2026-05-25T02:14:49.917120Z

Period
96.11 min
Inclination
70.0012°
Eccentricity
0.0002311
Mean motion
14.98336277 rev/d
Perigee alt
570.4 km
Apogee alt
573.6 km
Semi-major
6,950.2 km
B*
7.0504e-5
RAAN
281.9356°
Arg perigee
270.3749°
Mean anomaly
89.7145°
Rev number
5,733

§ Raw data

STARLINK-340811 64044U 25102Y   26145.09363330  .00000749  00000+0  70504-4 0  99922 64044  70.0012 281.9356 0002311 270.3749  89.7145 14.98336277 57335

JSON: /api/v1/satellites/64044 · /tle

For live sub-satellite position, see the globe view (requires WebGL).

§ Visibility from observer

Set your observer location to see the next 7 days of passes ≥ 10°. The values pass through the URL so the page stays shareable.

No JS? Fill the form by hand. The geolocation button needs JavaScript.